Aérodrome :
LOGIN :

S'inscrire | Disclaimer

   EN    FR    IT 

 










Légende :    VFR   VFR Marginal   IFR   IFR Intensif   IFR Très Intensif
Visi : 
Plafond : 
>= 8 km
>= 3000ft
5 à 8 km
1000 à 3000 ft
1500m à 5 km
500 à 1000 ft
800 à 1500m
200 à 500 ft
< 800m
< 200 ft
Symboles :   Orages  Brouillard  Fortes neiges  Fortes précipitations  Vent > 20 kt
SIGMETs :   Divers  Orages  Givrage  Turbulence  Onde Orograph.  Cendres Volcan.







- Altitude de l'aérodrome : 42 ft
- Code IATA : LMO


EGQS - Lossiemouth

DERNIER METAR :
  • 211230Z 03007KT 9999 FEW004 BKN014 BKN060 12/10 Q1018 GRN TEMPO SCT004 BKN012 YLO2

METARs EXPIRÉS :
  • 211150Z 36008KT 9999 FEW004 BKN012 BKN060 12/10 Q1018 GRN TEMPO SCT004 BKN012 YLO2
  • 211104Z 36010KT 9999 FEW004 SCT012 BKN060 13/11 Q1017 GRN NOSIG
  • 211050Z 36010KT 9999 FEW005 SCT030 BKN050 12/11 Q1017 BLU BECMG BKN012 GRN
  • 210950Z 01010KT 9999 FEW020 13/11 Q1017 BLU NOSIG

TAF AMD TAF EGQS
Valide du 21 à 12h jusqu'au 22 à 06h UTC


211117Z 2112/2206 01014KT 9999 FEW012
BECMG 2112/2114 BKN012
PROB40
TEMPO 2112/2206 4000 -RADZ SCT004 BKN010
Pas de NOTAMs connus pour ce terrain.



MET'MAP, la Météo Aéronautique d'un coup d'oeil ! - Copyright ORBIFLY Décembre 2007 - Disclaimer

ORBIFLY MET'MAP TEAM :

Programmation & Développement : Alexandra Zaïnal
Conception & Développement : Baudouin d'Aumeries
Co-Programmation & Développement : Marc-Olivier Méhu
Soutien technique & logistique : Manuel Goepfert

Contact : metmap@orbifly.com




SOURCES & CREDITS :

   NOAA